Voltar ao catálogo

STARLINK-37743

AtivoComunicaçõesSSO
NORAD 69339·PAYLOAD·🇺🇸 United States

Lançado Jun 3, 2026 de Vandenberg Space Force Base

Loading…

Próximas Passagens (próximas 24 horas)

TLE

AtualizadoSource: CelesTrak SupGP

Época: Sep 14, 2026, 21:01 UTC

1 69339C 26122L   26257.87618056  .00015343  00000+0  47637-3 0  2578
2 69339  97.2822 286.5637 0001541  92.5646  12.7950 15.33424580    12

Acompanhe STARLINK-37743 em tempo real com AllMySat

Download on the App Store